Location: Unspecified
(0.0000°N, 0.0000°E)
Time: 10:56:46
(UTC+00:00)

Altair - Visible Passes

Search period start: 30 May 2017 00:00
Search period end: 09 June 2017 00:00
Orbit: 1501 x 1682 km, 47.2° (Epoch: 29 May)

Date Brightness Start Highest point End Pass type
(mag) Time Alt. Az. Time Alt. Az. Time Alt. Az.
30 May 9.5 03:37:59 10° SSE 03:41:55 13° SE 03:45:52 10° ESE visible
30 May 8.1 18:28:04 10° NW 18:37:20 55° SW 18:46:22 10° SSE visible
31 May 9.5 03:14:31 10° SSE 03:16:38 11° SE 03:18:45 10° ESE visible
31 May 7.9 05:12:15 10° SSW 05:21:47 66° SE 05:31:38 10° NE visible
01 Jun 8.0 04:47:13 10° SSW 04:56:37 59° SE 05:06:19 10° NE visible
01 Jun 9.5 19:49:21 10° WSW 19:52:04 11° SW 19:54:48 10° SSW visible
02 Jun 8.1 04:23:48 16° SSW 04:31:27 52° SE 04:40:59 10° NE visible
02 Jun 9.4 19:22:36 10° WSW 19:26:49 14° SW 19:31:00 10° SSW visible
03 Jun 8.2 04:00:31 23° S 04:06:18 47° SE 04:15:35 10° ENE visible
03 Jun 9.4 18:56:19 10° W 19:01:34 16° SW 19:06:46 10° SSW visible
04 Jun 8.3 03:37:14 30° S 03:41:08 41° SE 03:50:09 10° ENE visible
04 Jun 9.3 18:30:17 10° W 18:36:20 19° SW 18:42:21 10° S visible
05 Jun 8.4 03:13:57 34° SSE 03:15:58 37° SE 03:24:40 10° ENE visible
05 Jun 8.0 05:12:01 12° WSW 05:20:31 48° NW 05:29:59 10° NNE visible
06 Jun 8.5 02:50:38 32° SE 02:50:47 32° SE 02:59:07 10° ENE visible
06 Jun 7.8 04:48:41 21° WSW 04:55:20 54° NW 05:04:56 10° NNE visible
07 Jun 8.8 02:27:16 27° ESE 02:27:16 27° ESE 02:33:32 10° ENE visible
07 Jun 7.6 04:25:20 32° WSW 04:30:10 61° NW 04:39:53 10° NNE visible
08 Jun 9.2 02:03:53 21° ESE 02:03:53 21° ESE 02:07:52 10° E visible
08 Jun 7.5 04:01:57 47° WSW 04:05:00 68° NW 04:14:47 10° NNE visible
